Regional Weather Roundup
Issued by NWS

Home | Current Version | Previous Version | Text Only | Print | Product List | Glossary Off
Versions: 1 2 3 4 5 6 7 8 9 10 11 12 13 14 15 16 17 18 19 20 21 22 23 24 25 26 27 28 29 30 31 32 33 34 35 36 37 38 39 40 41 42 43 44 45 46 47 48 49 50

000
ASUS45 KTFX 261019
RWRMT
MONTANA HOURLY WEATHER ROUNDUP
NATIONAL WEATHER SERVICE GREAT FALLS MT
319 AM MST WED NOV 26 2014

NOTE: "FAIR" INDICATES FEW OR NO CLOUDS BELOW 12000 FEET WITH NO
SIGNIFICANT WEATHER AND/OR OBSTRUCTIONS TO VISIBILITY.

* THESE STATIONS ARE NOT UNDER NWS QUALITY CONTROL. THEY DO NOT
   REPORT WEATHER SUCH AS PRECIPITATION OR FOG.

MTZ001>007-043-261100-
WEST OF THE DIVIDE
CITY           SKY/WX    TMP DP  RH WIND       PRES   REMARKS
KALISPELL      LGT SNOW  30  30 100 CALM      30.16R VSB 3/4
MISSOULA       LGT SNOW  30  30 100 CALM      30.15R VSB 1
BUTTE          LGT SNOW  27  27 100 S5        30.07S VSB 2 1/2 WCI  21
MULLAN PASS    FOG       32  30  92 VRB5      30.06R VSB 1/2  WCI  27
* ESSEX        N/A       29  28  96 N/A        N/A
* EUREKA APT   CLOUDY    32  30  92 CALM      30.18S VSB 1
* LIBBY APT    PTCLDY    32  30  92 CALM      30.18R VSB 1
* LINCOLN      N/A       28  27  96 N/A        N/A
* LOOKOUT PASS N/A       32  32 100 NE7        N/A   WCI  25
* POLSON       N/A       30  30 100 N/A        N/A
* RONAN APT    CLOUDY    32  30  92 N/A        N/A
* SEELEY LAKE  N/A       29  28  96 N/A        N/A
* THOMP F APT  MOCLDY    30  29  96 N2         N/A
* YAAK HILL    N/A       32  30  92 N/A        N/A
$$

MTZ008-052>055-261100-
SOUTHWEST MONTANA
CITY           SKY/WX    TMP DP  RH WIND       PRES   REMARKS
BOZEMAN        LGT SNOW  28  27  96 CALM      30.11S VSB 2
DILLON         CLOUDY    27  27 100 VRB3      30.07F
* W YELLOWSTON PTCLDY    33  31  92 SW7G15     N/A   WCI  27
* ENNIS APT    PTCLDY    30  28  92 N/A        N/A
* THREE FORKS  MOCLDY    30   5  34 N/A        N/A
* BOULDER HILL N/A       26  23  88 S9         N/A   WCI  17
* MONIDA PASS  N/A       30  29  96 SE7        N/A   WCI  23
* RAYNOLDS PAS N/A       38  25  60 SW9G15     N/A   WCI  32
* WHITEHALL    N/A       29  28  96 E2G7       N/A
* WISE RIVER   N/A       28  27  96 SE3        N/A
$$

MTZ009>010-012-014-046-048-049-054-261100-
EAST SLOPES AND CENTRAL MONTANA
CITY           SKY/WX    TMP DP  RH WIND       PRES   REMARKS
CUT BANK       LGT SNOW  27  25  92 SE5       30.12S VSB 2    WCI  21
GREAT FALLS    LGT SNOW  28  28 100 CALM      30.13R VSB 1 3/4
HELENA         LGT SNOW  30  28  92 CALM      30.12S VSB 1 1/2
MALMSTROM AFB  LGT SNOW  28  28 100 SE5       30.16R VSB 2 1/2 WCI  22
* CONRAD       CLOUDY    28  27  96 NE5        N/A   WCI  22
* DEARBORN     N/A       31  30  96 N/A        N/A
* EAST GLACIER N/A       24  23  96 NW1        N/A
* MONARCH      N/A       23  20  88 S4         N/A
* PENDROY      N/A       27  26  96 SE1        N/A
* ROGERS PASS  N/A       26  24  92 N/A        N/A
* SAINT MARY   N/A       28  23  81 S4         N/A
* SWEET GRASS  N/A       28  26  92 SW4        N/A
* WHITE SULPH  N/A       25  24  96 S2         N/A
$$

MTZ011-013-016-021-035-040-045-047-050-051-261100-
NORTH CENTRAL MONTANA
CITY           SKY/WX    TMP DP  RH WIND       PRES   REMARKS
HAVRE          LGT SNOW  27  25  92 CALM      30.19S
LEWISTOWN      LGT SNOW  27  25  92 SW5       30.14R VSB 3    WCI  21
* N BAR RANCH  CLOUDY    25  21  85 NW3       30.13S
* CHINOOK      CLOUDY    28  25  89 CALM      30.20S
* FORT BENTON  CLOUDY    30  28  92 CALM      30.19S
* CHESTER      N/A       28  26  92 N/A        N/A
* DENTON       N/A       28  26  92 SW6        N/A   WCI  21
* GEYSER       N/A       26  24  92 SE3        N/A
* JUDITH GAP   N/A       23  23 100 SE1        N/A
* LOMA         N/A       31  26  82 SW1        N/A
$$

MTZ017>020-022>027-061-062-261100-
NORTHEAST MONTANA
CITY           SKY/WX    TMP DP  RH WIND       PRES   REMARKS
GLASGOW        CLOUDY    21  16  81 S3        30.22R
GLENDIVE       CLOUDY    23  19  85 N6        30.21S WCI  16
JORDAN         CLOUDY    27  21  78 NE6       30.19S WCI  20
SIDNEY         CLOUDY    23  18  81 CALM      30.25S
WOLF POINT     CLOUDY    21  16  81 NE5       30.25R WCI  14
* BEAVER HILL  N/A       20  18  92 NW6        N/A   WCI  12
* CIRCLE       N/A       23  20  88 N/A        N/A
* LINDSAY DVD  N/A       20  19  96 NW5        N/A   WCI  13
* NAVAJO       N/A       12   8  84 VRB6       N/A   WCI   2
* PLENTYWOOD A CLOUDY    10   7  88 N6        30.24S
* POPLAR APT   CLOUDY    19  16  88 N/A       30.25R
* SACO         N/A       24  18  78 N/A        N/A
$$

MTZ028>042-056>058-261100-
SOUTHCENTRAL AND SOUTHEAST MONTANA
CITY           SKY/WX    TMP DP  RH WIND       PRES   REMARKS
BAKER          CLOUDY    25  19  78 NW3       30.17S
BILLINGS       LGT SNOW  28  28 100 SW8       30.17F VSB 1 3/4 WCI  20
LIVINGSTON     LGT SNOW  27  25  92 E6        30.11S VSB 1 1/4 WCI  20
MILES CITY     CLOUDY    28  23  81 SW3       30.18F
* BIG TIMBER A CLOUDY    25  25 100 CALM      30.14R VSB 1 1/4
* FORSYTH APT  CLOUDY    28  25  89 CALM      30.19S
* LAUREL APT   CLOUDY    28  21  75 N/A        N/A
* ALZADA       N/A       23  22  96 NW4        N/A
* HYSHAM       N/A       28  23  81 W2         N/A
* LAME DEER    N/A      N/A N/A N/A N/A        N/A
* REED POINT   N/A       28  27  96 SE1        N/A
* ROSCOE HILL  N/A       22  19  88 SE6        N/A   WCI  14
$$

REGIONAL REPORTS...DAKOTAS
CITY           SKY/WX    TMP DP  RH WIND       PRES   REMARKS
WILLISTON      LGT SNOW  16  12  84 N3        30.25R VSB 3
DICKINSON      CLOUDY    19  16  88 CALM      30.17S
BEACH          LGT SNOW  21  21 100 NW6       30.18F WCI  13
CROSBY         LGT SNOW   9   7  91 N9        30.28R WCI  -4
TIOGA          LGT SNOW  10  10 100 CALM      30.25R VSB 2 1/2
BISMARCK       CLOUDY    10   7  88 N8        30.28R WCI  -2
GRAND FORKS    PTCLDY     1  -4  79 N15G26    30.28R WCI -18
FARGO          LGT SNOW  10   7  88 N21       30.20R WCI  -9
BUFFALO SD     CLOUDY    25  19  78 N7        30.10S WCI  17
RAPID CITY     CLOUDY    25  19  78 N20       30.16R WCI  11
$$

REGIONAL REPORTS...WYOMING/IDAHO/WASHINGTON
CITY           SKY/WX    TMP DP  RH WIND       PRES   REMARKS
GILLETTE       CLOUDY    27  23  85 NW7       30.15R WCI  19
SHERIDAN       CLOUDY    28  21  75 W13       30.16R WCI  17
CODY           CLOUDY    25  23  92 S5        30.13S WCI  19
YELLOWSTONE LA MOCLDY    32  28  85 VRB5      30.09R WCI  27
SALMON         CLOUDY    32  30  92 CALM      30.14S VSB M1/4
MULLAN PASS    FOG       32  30  92 VRB5      30.06S VSB 1/2  WCI  27
SAND POINT     N/A       32  32 100 CALM      30.17F
SPOKANE        FOG       34  34 100 NE5       30.15S VSB 1/2  WCI  29
$$

REGIONAL REPORTS...ALBERTA
CITY           SKY/WX    TMP DP  RH WIND       PRES   REMARKS
CALGARY        FOG       23  21  92 SE3       30.11S VSB 3
LETHBRIDGE     LGT SNOW  27  27 100 E6        30.15S VSB 2 1/2 WCI  20
MEDICINE HAT   MOCLDY    23  21  92 E3        30.21R
EDMONTON       LGT SNOW  14  10  84 SE13      30.17S
WATERTON GATE  N/A       30  23  75 SW7        N/A   WCI  23
CARDSTON       N/A       28  23  81 W1         N/A
MILK RIVER     N/A       27  25  92 SE3        N/A
$$

REGIONAL REPORTS...SASKATCHEWAN
CITY           SKY/WX    TMP DP  RH WIND       PRES   REMARKS
SWIFT CURRENT  CLOUDY    10   9  96 SE8       30.18F WCI  -2
REGINA         FAIR      -6  -9  87 N2        30.31R
VAL MARIE      N/A       21  19  92 NE3        N/A
ASSINIBOIA     N/A        9   5  84 NE7        N/A   WCI  -2
CORONACH       N/A       12   9  88 N3         N/A

$$



USA.gov is the U.S. government's official web portal to all federal, state and local government web resources and services.